COSMOS 252 DEB *, 18597

Orbit data source: Space-Track

COSMOS 252 DEB *, 18597 is space debris in LEO originally from a launch on Fri, 01 Nov 1968 UTC launched from the Tyuratam Missile And Space Complex (TTMTR). Debris objects in space refer to the collection of defunct objects orbiting the Earth. Examples of debris include non-operational satellites, rocket bodies, and fragments generated from explosions, collisions, or faulty payload assembly.

Loading next visibility...
Identifier
18597, 1968-097EQ
Orbit
LEO
Country
Flag of CISCIS
Related business
Manufacturer
Unknown
Mission
Spacecraft
Bus & Motor
Unknown
Mass
Unknown
Launch date (UTC)
1968-11-01 (58 years ago)
Launch vehicle
Unknown
Launch site
Tyuratam Missile And Space Complex (TTMTR)
Object type
Payload
Rocket body
Debris
Shape & HBR
Unknown shape, 0.1 m
Radar Cross Section
Medium (>0.1 m² and <1 m²)

Expand to show TLE details & history
Last TLE update: 10 hours ago

TLE from 10 hours ago
0 COSMOS 252 DEB *
1 18597U 68097EQ  26219.96170257  .00000997  00000-0  14081-2 0  9998
2 18597  62.2516 164.2582 0778998  61.3394 306.3658 12.75752639590716
Epoch: 2026-08-07T23:04Z
TLE epoch observation values (Epoch: 2026-08-07T23:04:51.102Z)
Latitude
-0.00004°
Longitude
-138.43463°
Altitude
1,035.408 km
Speed
7.487 km/s
True Right ascension
10h 57m 01s
True Declination
0° 00' 00"
Sunlit
Object was in daylight at epoch
Visualization orbit readout
Latitude
Unknown
Longitude
Unknown
Altitude
Unknown
Speed
Unknown
Apparent Right ascension
Unknown
Apparent Declination
Unknown
Sunlit
N/A
Visualization observer readout
Local Sidereal Time
23:38:48
Azimuth
Unknown
Elevation
Unknown
Doppler factor
Unknown
Orbital elements
Apogee altitude
1,960.207 km
Perigee altitude
754.983 km
Semi-major axis
7,735.732 km
Eccentricity
0.0779
Inclination
62.2516°
RAAN
164.2582°
Arg. of periapsis
61.3394°
True anomaly
298.76088°
Mean anomaly
306.3658°
Eccentric anomaly
302.6059°
Mean motion
3.19 °/min
Orbital period
112.85 mins
BSTAR
0.0014081
Loading maneuver chart data...
Computing Atmospheric mass density...

Documentation

Showing up to 5 results
|